EW8026 Guilford CT US current weather conditions

sailwx.info

Wind from 221 at 0 knots gusting 2

Air temperature 29.4° C
Dewpoint 25.4° C

Last reported at 2020-Aug-10 15:01 UTC.
Time now 2020-Aug-10 15:45 UTC

Location: N 41°17' W 072°44'.
View on Google Maps.

See reports from other nearby stations

  
Tides and Currents Weather Stations Pressure Air Temp Water Temp Dewpoint Dewpoint Depression Visibility Wind Speed Wind Dir Waves Ship Positions
date/time (UTC)wind fromknots sea level pressurealtimeterstation pressurevisibilityair tempwater tempwave heightnotes
2020-Aug-10 15:01 221 0 gusting 2 29.4
2020-Aug-10 14:45 177 0 gusting 4 29.4
2020-Aug-10 14:30 327 28.9
2020-Aug-10 14:15 301 28.3
2020-Aug-10 14:00 001 27.2
2020-Aug-10 13:45 215 26.1
2020-Aug-10 13:30 214 25.0
2020-Aug-10 13:15 209 24.4
2020-Aug-10 13:01 206 23.9
2020-Aug-10 12:46 195 23.3
2020-Aug-10 12:32 195 23.3
2020-Aug-10 12:16 195 22.8
2020-Aug-10 12:01 196 22.8
2020-Aug-10 11:46 195 22.2
2020-Aug-10 11:31 195 22.2
2020-Aug-10 11:16 195 21.7
2020-Aug-10 11:01 196 21.7
2020-Aug-10 10:47 196 21.7
2020-Aug-10 10:34 196 21.7
2020-Aug-10 10:16 195 21.7
2020-Aug-10 10:01 196 21.7
2020-Aug-10 09:45 195 21.7
2020-Aug-10 09:31 195 21.1
2020-Aug-10 09:16 195 21.1
2020-Aug-10 09:00 195 21.7
2020-Aug-10 08:46 195 21.7
2020-Aug-10 08:31 195 21.7
2020-Aug-10 08:17 196 21.7
2020-Aug-10 08:01 196 21.7
2020-Aug-10 07:46 196 21.7
2020-Aug-10 07:31 196 21.7
2020-Aug-10 07:15 196 21.7
2020-Aug-10 07:01 196 21.7
2020-Aug-10 06:46 196 21.7
2020-Aug-10 06:30 196 21.7
2020-Aug-10 06:16 196 21.7
2020-Aug-10 06:01 196 21.7
2020-Aug-10 05:45 196 21.7
2020-Aug-10 05:30 196 22.2
2020-Aug-10 05:15 196 22.2
2020-Aug-10 05:00 196 22.2
2020-Aug-10 04:45 153 22.8
2020-Aug-10 04:30 207 0 gusting 4 22.8
2020-Aug-10 04:15 200 22.8
2020-Aug-10 04:00 201 22.8
2020-Aug-10 03:45 212 22.8
2020-Aug-10 03:30 226 22.8
2020-Aug-10 03:15 222 22.8
2020-Aug-10 03:00 192 22.8
2020-Aug-10 02:45 231 23.3
2020-Aug-10 02:30 200 23.3
2020-Aug-10 02:15 217 23.3
2020-Aug-10 02:00 161 23.3
2020-Aug-10 01:45 215 23.3
2020-Aug-10 01:30 134 23.9
2020-Aug-10 01:15 221 23.9
2020-Aug-10 01:00 230 23.9
2020-Aug-10 00:45 228 23.9
2020-Aug-10 00:30 216 24.4
2020-Aug-10 00:15 236 24.4
2020-Aug-10 00:00 211 25.0
2020-Aug-09 23:45 260 0 gusting 3 25.0
2020-Aug-09 23:16 183 0 gusting 2 25.6
2020-Aug-09 23:01 230 0 gusting 4 26.1
2020-Aug-09 22:46 205 0 gusting 4 26.7
2020-Aug-09 22:31 228 1 gusting 5 26.7
2020-Aug-09 22:16 216 1 gusting 4 27.2
2020-Aug-09 22:01 231 27.8
2020-Aug-09 21:46 210 0 gusting 5 27.8
2020-Aug-09 21:31 237 0 gusting 7 28.3
2020-Aug-09 21:16 245 1 gusting 4 29.4
2020-Aug-09 21:02 212 29.4
2020-Aug-09 20:46 186 0 gusting 6 30.0
2020-Aug-09 20:31 230 30.6
2020-Aug-09 20:16 261 0 gusting 5 30.0
2020-Aug-09 20:01 294 1 gusting 6 30.0
2020-Aug-09 19:46 069 30.0
2020-Aug-09 19:31 217 0 gusting 5 30.0
2020-Aug-09 19:16 032 0 gusting 4 29.4
2020-Aug-09 19:01 216 0 gusting 4 29.4
2020-Aug-09 18:47 227 1 gusting 4 30.0
2020-Aug-09 18:30 190 0 gusting 5 30.0
2020-Aug-09 18:16 128 0 gusting 4 30.0
2020-Aug-09 18:00 221 0 gusting 3 29.4
2020-Aug-09 17:46 264 0 gusting 3 29.4
2020-Aug-09 17:30 267 1 gusting 6 28.9
2020-Aug-09 17:16 238 0 gusting 6 28.3
2020-Aug-09 17:00 138 1 gusting 4 28.3
2020-Aug-09 16:45 212 1 gusting 5 27.8
2020-Aug-09 16:30 169 2 gusting 6 27.8
2020-Aug-09 16:15 215 1 gusting 5 27.2
2020-Aug-09 16:02 193 1 gusting 6 27.2
2020-Aug-09 15:47 252 1 gusting 5 26.7
2020-Aug-09 15:31 122 0 gusting 3 26.1
2020-Aug-09 15:16 078 25.6
2020-Aug-09 15:01 200 1 gusting 3 25.6
2020-Aug-09 14:46 209 0 gusting 3 25.0
2020-Aug-09 14:31 228 1 gusting 4 24.4
2020-Aug-09 14:16 215 23.9
2020-Aug-09 14:01 218 23.9
2020-Aug-09 13:46 271 23.9
2020-Aug-09 13:31 223 0 gusting 2 23.3
2020-Aug-09 13:15 192 0 gusting 3 23.3
2020-Aug-09 13:01 192 22.8
2020-Aug-09 12:45 217 22.2
2020-Aug-09 12:30 214 22.2
2020-Aug-09 12:15 162 21.7
2020-Aug-09 12:00 196 21.1
2020-Aug-09 11:45 178 20.6
2020-Aug-09 11:30 178 20.0
2020-Aug-09 11:15 178 19.4
2020-Aug-09 11:00 178 19.4
2020-Aug-09 10:45 178 19.4
2020-Aug-09 10:30 178 19.4
2020-Aug-09 10:15 178 19.4
2020-Aug-09 10:00 178 19.4
2020-Aug-09 09:45 178 20.0
2020-Aug-09 09:15 178 20.0
2020-Aug-09 09:00 178 20.0
2020-Aug-09 08:45 178 20.0
2020-Aug-09 08:30 178 20.0
2020-Aug-09 08:15 178 20.0
2020-Aug-09 08:01 178 20.0
2020-Aug-09 07:47 178 20.0
2020-Aug-09 07:32 178 20.0
2020-Aug-09 07:16 178 20.0
2020-Aug-09 07:01 178 20.0
2020-Aug-09 06:48 178 20.0
2020-Aug-09 06:30 178 20.0
2020-Aug-09 06:16 178 20.0
2020-Aug-09 06:01 178 20.0
2020-Aug-09 05:46 178 20.0
2020-Aug-09 05:31 178 20.0
2020-Aug-09 05:16 178 20.0
2020-Aug-09 05:01 178 20.6
2020-Aug-09 04:47 178 20.6
2020-Aug-09 04:31 178 20.6
2020-Aug-09 04:16 178 20.6
2020-Aug-09 04:01 178 20.6
2020-Aug-09 03:46 178 20.6
2020-Aug-09 03:31 178 21.1
2020-Aug-09 03:15 178 21.1
2020-Aug-09 03:01 178 21.1
2020-Aug-09 02:45 178 21.1
2020-Aug-09 02:30 178 21.7
2020-Aug-09 02:16 178 21.7
2020-Aug-09 02:00 178 21.7
2020-Aug-09 01:45 178 21.7
2020-Aug-09 01:30 179 22.2
2020-Aug-09 01:16 178 22.2
2020-Aug-09 01:00 178 22.2
2020-Aug-09 00:46 178 22.2
2020-Aug-09 00:31 179 22.8
2020-Aug-09 00:15 178 23.3
2020-Aug-09 00:01 179 23.3
2020-Aug-08 23:45 179 23.9
2020-Aug-08 23:31 178 24.4
2020-Aug-08 23:15 185 24.4
2020-Aug-08 23:01 250 24.4
2020-Aug-08 22:45 225 25.0
2020-Aug-08 22:30 135 25.0
2020-Aug-08 22:15 248 25.6
2020-Aug-08 22:01 214 26.1
2020-Aug-08 21:45 210 26.7
2020-Aug-08 21:30 226 1 gusting 5 27.2
2020-Aug-08 21:15 245 27.8
2020-Aug-08 21:01 211 1 gusting 4 27.2
2020-Aug-08 20:46 258 28.3
2020-Aug-08 20:30 286 28.3
2020-Aug-08 20:15 271 0 gusting 4 27.8
2020-Aug-08 20:00 268 27.8
2020-Aug-08 19:45 231 1 gusting 4 27.2
2020-Aug-08 19:30 213 1 gusting 5 27.8
2020-Aug-08 19:15 338 0 gusting 4 28.3
2020-Aug-08 19:00 214 28.3
2020-Aug-08 18:45 251 28.3
2020-Aug-08 18:30 252 28.3
2020-Aug-08 18:15 090 27.8
2020-Aug-08 18:02 249 27.2
2020-Aug-08 17:47 164 27.8
2020-Aug-08 17:32 192 0 gusting 4 27.2
2020-Aug-08 17:16 228 27.2
2020-Aug-08 17:01 210 0 gusting 3 27.2
2020-Aug-08 16:46 159 27.2
2020-Aug-08 16:31 150 27.2
2020-Aug-08 16:16 152 26.7